Regional Weather Roundup
Issued by NWS Sterling, VA

Home | Current Version | Previous Version | Graphics & Text | Print | Product List | Glossary On
Versions: 1 2 3 4 5 6 7 8 9 10 11 12 13 14 15 16 17 18 19 20 21 22 23 24 25 26 27 28 29 30 31 32 33 34 35 36 37 38 39 40 41 42 43 44 45 46 47 48 49 50
000
ASUS41 KLWX 210110
RWRLWX

REGIONAL WEATHER ROUNDUP
NATIONAL WEATHER SERVICE BALTIMORE MD/WASHINGTON DC
900 PM EDT SAT SEP 20 2014

Note: "FAIR" indicates few or no clouds below 12,000 feet
with no significant weather and/or obstructions to visibility.
 TC=TEMPERATURE CELSIUS

 * =Non NWS site. Station does not report precipitation (e.g. rain,
    snow, etc.), thunder, or fog.

DCZ001-MDZ009-015-VAZ040>042-051-053>054-210200-
WASHINGTON METRO

CITY           SKY/WX    TMP DP  RH WIND       PRES   REMARKS
WASHINGTON NAT PTCLDY    74  60  61 S9        30.07S
DULLES         PTCLDY    69  59  70 SE8       30.05S
ANDREWS AFB    CLEAR     65  61  86 SE6       30.07S
QUANTICO       CLEAR     71  63  75 S8        30.07S
COLLEGE PARK*  CLEAR     68  61  77 SE3       30.06S
LEESBURG*      CLEAR     70  61  73 S6        30.06S
GAITHERSBURG*  CLEAR     66  57  72 SE6       30.09F

$$

MDZ006>007-011-014-210200-
BALTIMORE METRO

CITY           SKY/WX    TMP DP  RH WIND       PRES   REMARKS
BWI AIRPORT    PTCLDY    69  59  70 SE6       30.06F
MD SCIENCE CTR   N/A     73  63  70 MISG      30.07F
MARTIN STATE   CLEAR     72  66  83 E7        30.09S
ANNAPOLIS      PTCLDY    70  64  81 CALM      30.08R
FORT MEADE*    CLEAR     61  59  94 SE7       30.08F

$$

MDZ012-015-019>023-210200-
MARYLAND EASTERN SHORE

CITY           SKY/WX    TMP DP  RH WIND       PRES   REMARKS
OCEAN CITY     CLOUDY    72  67  84 E8        30.07F
SALISBURY      CLOUDY    72  66  83 NE3       30.07F
BAY BRIDGE AP*   N/A     70  61  73 E6        30.08S
CAMBRIDGE*     CLEAR     70  61  73 E5        30.07S
EASTON*        CLEAR     70  63  78 CALM      30.11

$$

MDZ017>025-210200-
SOUTHERN MARYLAND

CITY           SKY/WX    TMP DP  RH WIND       PRES   REMARKS
PATUXENT RIVER CLEAR     70  61  73 E9        30.06F
ST INIGOES     PTCLDY    65  60  84 E3        30.06F
LEONARDTOWN*   PTCLDY    66  59  77 CALM      30.08F

$$

MDZ003>005-210200-
NORTH CENTRAL MARYLAND

CITY           SKY/WX    TMP DP  RH WIND       PRES   REMARKS
FREDERICK*     CLEAR     70  59  68 SE5       30.08R
HAGERSTOWN APT CLEAR     69  56  62 SE8       30.04R
WESTMINSTER*   CLEAR     70  57  64 SE6       30.07S

$$

MDZ501>502-210200-
WESTERN MARYLAND

CITY           SKY/WX    TMP DP  RH WIND       PRES   REMARKS
OAKLAND*       CLEAR     61  61 100 S5        30.09S
CUMBERLAND*    PTCLDY    72  55  56 S3        30.05S

$$

VAZ025>031-210200-
SHENANDOAH VALLEY

CITY           SKY/WX    TMP DP  RH WIND       PRES   REMARKS
WINCHESTER*    CLEAR     68  57  68 S5        30.05R
STAUNTON*      CLEAR     67  54  63 S3        30.08S

$$

WVZ021-048>050-054>055-210200-
EASTERN WEST VIRGINIA PANHANDLE

CITY           SKY/WX    TMP DP  RH WIND       PRES   REMARKS
MARTINSBURG    CLEAR     69  54  58 S5        30.05R
PETERSBURG*    PTCLDY    64  58  79 CALM      30.04R

$$

VAZ036>039-050-210200-
CENTRAL FOOTHILLS

CITY           SKY/WX    TMP DP  RH WIND       PRES   REMARKS
CHARLOTTESVILL CLEAR     70  57  63 SE3       30.05S
ORANGE*        CLEAR     64  57  77 CALM      30.08R

$$

VAZ055>057-210200-
NORTH AND CENTRAL PIEDMONT

CITY           SKY/WX    TMP DP  RH WIND       PRES   REMARKS
FREDERICKSBRG* CLEAR     69  60  72 SE3       30.06S
STAFFORD*      CLEAR     61  61 100 CALM      30.11R

$$

NCZ024-NYZ072-PAZ021-071-VAZ022-071-210200-
OTHER REGIONAL OBSERVATIONS

CITY           SKY/WX    TMP DP  RH WIND       PRES   REMARKS
NEW YORK CITY  CLEAR     68  61  78 S5        30.14S
PHILADELPHIA   CLEAR     69  61  75 SE5       30.10F
PITTSBURGH     PTCLDY    71  61  70 S6        29.97R
ROANOKE        PTCLDY    68  58  70 SE3       30.09R
RICHMOND       MOCLDY    69  63  81 E6        30.06S
RALEIGH        CLOUDY    70  60  70 NE6       30.03S

$$

ANZ530>537-210200-
MARINE OBSERVATIONS

STATION/POSITION TIME  TEMP    WIND        PRES
                       AIR SEA DIR/SP/G
                 (UTC) (F)     (DEG/KT/KT) (MB)
THOMAS PT LIGHT  0100   73 74  130/  4/  5 1019.2F
BALT KEY BRIDGE  0100   73     130/  6/  7 1018.2S
COVE POINT       0100   71     150/ 10/ 14 1018.1F
LEWISETTA        0100   73 75  100/  9/ 10 1017.6F
SOLOMONS ISLAND  0100      76                N/A
PINEY POINT      0100          130/  9/  9   N/A

$$




USA.gov is the U.S. government's official web portal to all federal, state and local government web resources and services.